Location: Cormont
(50.5693°N, 1.7416°E)
Time: 22:36:37
(UTC+00:00)

STARLINK-42 - Pass Details

Date: 21 October 2019
Orbit: 548 x 551 km, 53.0° (Epoch: 18 November)

Event Time Altitude Azimuth Distance (km) Brightness Sun altitude
Rises 18:01:11 0° 273° (W) 2,718 9.3 -12.0°
Reaches altitude 10° 18:03:27 10° 277° (W) 1,825 7.7 -12.4°
Maximum altitude 18:07:33 61° 358° (N) 631 3.9 -13.0°
Enters shadow 18:10:10 21° 74° (ENE) 1,259 4.9 -13.5°
